contact:dominique.lefevre@mio.osupytheas.fr, maurice.libes@osupytheas.fr, didier.mallarino@osupytheas.fr
Project:EMSO http://www.emso-fr.org/EMSO-France
Depth: 2436.0 m
Title:EMSO Ligure Ouest : Data MII capteur CSTAR
DateTime,Latitude,Longitude,Instrument_Serial,Reference_Counts,Signal_Counts,Corrected_Signal_raw_counts,Calculated_Beam_c_inverse_meters,Internal_thermistor_counts
DateTime,Latitude,Longitude,Instrument_Serial,Reference_Counts,Signal_Counts,Corrected_Signal_raw_counts,Calculated_Beam_c_inverse_meters,Internal_thermistor_counts
2023-01-22T00:02:47,42.805,6.029,CST-1368DR,4408,4931,11888,01.091,551
2023-01-22T00:05:49,42.805,6.029,CST-1368DR,4408,4931,11888,01.091,551
2023-01-22T00:08:51,42.805,6.029,CST-1368DR,4408,4931,11889,01.091,551
2023-01-22T00:11:52,42.805,6.029,CST-1368DR,4408,4931,11889,01.091,551
2023-01-22T00:14:54,42.805,6.029,CST-1368DR,4408,4931,11889,01.091,551
2023-01-22T00:17:55,42.805,6.029,CST-1368DR,4408,4931,11889,01.091,551
2023-01-22T00:20:57,42.805,6.029,CST-1368DR,4408,4932,11890,01.090,551
2023-01-22T00:23:59,42.805,6.029,CST-1368DR,4408,4932,11890,01.090,551
2023-01-22T00:27:00,42.805,6.029,CST-1368DR,4408,4926,11877,01.095,551
2023-01-22T00:30:02,42.805,6.029,CST-1368DR,4408,4931,11887,01.091,551
2023-01-22T00:33:03,42.805,6.029,CST-1368DR,4408,4931,11889,01.091,551
2023-01-22T00:36:05,42.805,6.029,CST-1368DR,4408,4932,11891,01.090,551
2023-01-22T00:39:07,42.805,6.029,CST-1368DR,4409,4932,11888,01.091,551
2023-01-22T00:42:08,42.805,6.029,CST-1368DR,4408,4932,11890,01.090,551
2023-01-22T00:45:10,42.805,6.029,CST-1368DR,4408,4931,11889,01.091,551
2023-01-22T00:48:11,42.805,6.029,CST-1368DR,4408,4931,11889,01.091,551
2023-01-22T00:51:13,42.805,6.029,CST-1368DR,4408,4932,11892,01.090,551
2023-01-22T00:54:14,42.805,6.029,CST-1368DR,4408,4932,11891,01.090,551
2023-01-22T00:57:16,42.805,6.029,CST-1368DR,4408,4931,11888,01.091,551
2023-01-22T01:00:18,42.805,6.029,CST-1368DR,4408,4932,11891,01.090,551
2023-01-22T01:03:19,42.805,6.029,CST-1368DR,4408,4931,11889,01.091,551
2023-01-22T01:06:21,42.805,6.029,CST-1368DR,4408,4932,11891,01.090,551
2023-01-22T01:09:22,42.805,6.029,CST-1368DR,4408,4932,11890,01.090,551
2023-01-22T01:12:24,42.805,6.029,CST-1368DR,4408,4931,11888,01.091,551
2023-01-22T01:15:26,42.805,6.029,CST-1368DR,4408,4931,11889,01.091,551
2023-01-22T01:18:27,42.805,6.029,CST-1368DR,4408,4931,11889,01.091,551
2023-01-22T01:21:29,42.805,6.029,CST-1368DR,4408,4931,11889,01.091,551
2023-01-22T01:24:30,42.805,6.029,CST-1368DR,4408,4931,11887,01.091,551
2023-01-22T01:27:32,42.805,6.029,CST-1368DR,4408,4931,11889,01.091,551
2023-01-22T01:30:33,42.805,6.029,CST-1368DR,4408,4931,11888,01.091,551
2023-01-22T01:33:35,42.805,6.029,CST-1368DR,4408,4932,11890,01.090,551
2023-01-22T01:36:37,42.805,6.029,CST-1368DR,4408,4931,11889,01.091,551
2023-01-22T01:39:38,42.805,6.029,CST-1368DR,4408,4931,11889,01.091,551
2023-01-22T01:42:40,42.805,6.029,CST-1368DR,4408,4931,11889,01.091,551
2023-01-22T01:45:41,42.805,6.029,CST-1368DR,4408,4932,11890,01.090,551
2023-01-22T01:48:43,42.805,6.029,CST-1368DR,4408,4931,11888,01.091,551
2023-01-22T01:51:45,42.805,6.029,CST-1368DR,4409,4932,11888,01.091,551
2023-01-22T01:54:46,42.805,6.029,CST-1368DR,4408,4932,11891,01.090,551
2023-01-22T01:57:48,42.805,6.029,CST-1368DR,4408,4932,11890,01.090,551
2023-01-22T02:00:49,42.805,6.029,CST-1368DR,4408,4931,11889,01.091,551
2023-01-22T02:03:51,42.805,6.029,CST-1368DR,4408,4932,11890,01.090,551
2023-01-22T02:06:52,42.805,6.029,CST-1368DR,4408,4931,11889,01.091,551
2023-01-22T02:09:54,42.805,6.029,CST-1368DR,4408,4931,11889,01.091,551
2023-01-22T02:12:56,42.805,6.029,CST-1368DR,4408,4931,11889,01.091,551
2023-01-22T02:15:57,42.805,6.029,CST-1368DR,4408,4931,11889,01.091,551
2023-01-22T02:18:59,42.805,6.029,CST-1368DR,4408,4931,11889,01.091,551
2023-01-22T02:22:00,42.805,6.029,CST-1368DR,4408,4931,11889,01.091,551
2023-01-22T02:25:02,42.805,6.029,CST-1368DR,4408,4931,11889,01.091,551
2023-01-22T02:28:04,42.805,6.029,CST-1368DR,4408,4931,11889,01.091,551
2023-01-22T02:31:05,42.805,6.029,CST-1368DR,4408,4932,11890,01.090,551
2023-01-22T02:34:07,42.805,6.029,CST-1368DR,4408,4931,11889,01.091,551
2023-01-22T02:37:08,42.805,6.029,CST-1368DR,4408,4931,11889,01.091,551
2023-01-22T02:40:10,42.805,6.029,CST-1368DR,4408,4931,11889,01.091,551
2023-01-22T02:43:11,42.805,6.029,CST-1368DR,4408,4931,11888,01.091,551
2023-01-22T02:46:13,42.805,6.029,CST-1368DR,4408,4931,11887,01.091,551
2023-01-22T02:49:15,42.805,6.029,CST-1368DR,4408,4931,11889,01.091,551
2023-01-22T02:52:16,42.805,6.029,CST-1368DR,4408,4931,11888,01.091,551
2023-01-22T02:55:18,42.805,6.029,CST-1368DR,4408,4931,11888,01.091,551
2023-01-22T02:58:19,42.805,6.029,CST-1368DR,4408,4930,11886,01.092,551
2023-01-22T03:01:21,42.805,6.029,CST-1368DR,4408,4931,11889,01.091,551
2023-01-22T03:04:23,42.805,6.029,CST-1368DR,4408,4931,11888,01.091,551
2023-01-22T03:07:24,42.805,6.029,CST-1368DR,4408,4930,11886,01.092,551
2023-01-22T03:10:26,42.805,6.029,CST-1368DR,4408,4931,11889,01.091,551
2023-01-22T03:13:27,42.805,6.029,CST-1368DR,4408,4930,11886,01.092,551
2023-01-22T03:16:29,42.805,6.029,CST-1368DR,4408,4930,11886,01.092,551
2023-01-22T03:19:30,42.805,6.029,CST-1368DR,4408,4930,11886,01.092,551
2023-01-22T03:22:32,42.805,6.029,CST-1368DR,4408,4931,11888,01.091,551
2023-01-22T03:25:34,42.805,6.029,CST-1368DR,4408,4931,11889,01.091,551
2023-01-22T03:28:35,42.805,6.029,CST-1368DR,4408,4931,11889,01.091,551
2023-01-22T03:31:37,42.805,6.029,CST-1368DR,4408,4931,11887,01.091,551
2023-01-22T03:34:38,42.805,6.029,CST-1368DR,4408,4929,11883,01.093,551
2023-01-22T03:37:40,42.805,6.029,CST-1368DR,4408,4931,11888,01.091,551
2023-01-22T03:40:42,42.805,6.029,CST-1368DR,4408,4931,11888,01.091,551
2023-01-22T03:43:43,42.805,6.029,CST-1368DR,4408,4930,11886,01.092,551
2023-01-22T03:46:45,42.805,6.029,CST-1368DR,4408,4930,11886,01.092,551
2023-01-22T03:49:46,42.805,6.029,CST-1368DR,4408,4930,11885,01.092,551
2023-01-22T03:52:48,42.805,6.029,CST-1368DR,4408,4930,11886,01.092,551
2023-01-22T03:55:49,42.805,6.029,CST-1368DR,4408,4931,11889,01.091,551
2023-01-22T03:58:51,42.805,6.029,CST-1368DR,4408,4931,11888,01.091,551
2023-01-22T04:01:53,42.805,6.029,CST-1368DR,4408,4931,11887,01.091,551
2023-01-22T04:04:54,42.805,6.029,CST-1368DR,4408,4930,11886,01.092,551
2023-01-22T04:07:56,42.805,6.029,CST-1368DR,4408,4930,11885,01.092,551
2023-01-22T04:10:57,42.805,6.029,CST-1368DR,4408,4931,11887,01.091,551
2023-01-22T04:13:59,42.805,6.029,CST-1368DR,4408,4930,11886,01.092,551
2023-01-22T04:17:01,42.805,6.029,CST-1368DR,4408,4930,11885,01.092,551
2023-01-22T04:20:02,42.805,6.029,CST-1368DR,4408,4930,11885,01.092,551
2023-01-22T04:23:04,42.805,6.029,CST-1368DR,4408,4929,11884,01.092,551
2023-01-22T04:26:05,42.805,6.029,CST-1368DR,4408,4929,11884,01.092,551
2023-01-22T04:29:07,42.805,6.029,CST-1368DR,4408,4930,11886,01.092,551
2023-01-22T04:32:09,42.805,6.029,CST-1368DR,4408,4929,11883,01.093,551
2023-01-22T04:35:10,42.805,6.029,CST-1368DR,4408,4929,11884,01.092,551
2023-01-22T04:38:12,42.805,6.029,CST-1368DR,4408,4929,11884,01.092,551
2023-01-22T04:41:13,42.805,6.029,CST-1368DR,4408,4929,11883,01.093,551
2023-01-22T04:44:15,42.805,6.029,CST-1368DR,4408,4929,11884,01.092,551
2023-01-22T04:47:16,42.805,6.029,CST-1368DR,4408,4929,11884,01.092,551
2023-01-22T04:50:18,42.805,6.029,CST-1368DR,4408,4929,11884,01.092,551
2023-01-22T04:53:20,42.805,6.029,CST-1368DR,4408,4929,11883,01.093,551
2023-01-22T04:56:21,42.805,6.029,CST-1368DR,4408,4930,11886,01.092,551
2023-01-22T04:59:23,42.805,6.029,CST-1368DR,4408,4930,11886,01.092,551
2023-01-22T05:02:24,42.805,6.029,CST-1368DR,4408,4930,11885,01.092,551
2023-01-22T05:05:26,42.805,6.029,CST-1368DR,4408,4929,11884,01.092,551
2023-01-22T05:08:28,42.805,6.029,CST-1368DR,4408,4929,11884,01.092,551
2023-01-22T05:11:29,42.805,6.029,CST-1368DR,4408,4930,11885,01.092,551
2023-01-22T05:14:31,42.805,6.029,CST-1368DR,4408,4928,11882,01.093,551
2023-01-22T05:17:32,42.805,6.029,CST-1368DR,4408,4929,11884,01.092,551
2023-01-22T05:20:34,42.805,6.029,CST-1368DR,4408,4929,11884,01.092,551
2023-01-22T05:23:35,42.805,6.029,CST-1368DR,4408,4930,11886,01.092,551
2023-01-22T05:26:37,42.805,6.029,CST-1368DR,4408,4930,11885,01.092,551
2023-01-22T05:29:39,42.805,6.029,CST-1368DR,4408,4930,11886,01.092,551
2023-01-22T05:32:40,42.805,6.029,CST-1368DR,4408,4930,11885,01.092,551
2023-01-22T05:35:42,42.805,6.029,CST-1368DR,4408,4930,11885,01.092,551
2023-01-22T05:38:43,42.805,6.029,CST-1368DR,4408,4930,11885,01.092,551
2023-01-22T05:41:45,42.805,6.029,CST-1368DR,4408,4929,11883,01.093,551
2023-01-22T05:44:47,42.805,6.029,CST-1368DR,4408,4929,11884,01.092,551
2023-01-22T05:47:48,42.805,6.029,CST-1368DR,4408,4930,11886,01.092,551
2023-01-22T05:50:50,42.805,6.029,CST-1368DR,4408,4930,11886,01.092,551
2023-01-22T05:53:51,42.805,6.029,CST-1368DR,4408,4930,11885,01.092,551
2023-01-22T05:56:53,42.805,6.029,CST-1368DR,4408,4929,11884,01.092,551
2023-01-22T05:59:55,42.805,6.029,CST-1368DR,4408,4929,11884,01.092,551
2023-01-22T06:02:56,42.805,6.029,CST-1368DR,4408,4929,11884,01.092,551
2023-01-22T06:05:58,42.805,6.029,CST-1368DR,4408,4929,11883,01.093,551
2023-01-22T06:08:59,42.805,6.029,CST-1368DR,4408,4931,11887,01.091,551
2023-01-22T06:12:01,42.805,6.029,CST-1368DR,4408,4930,11886,01.092,551
2023-01-22T06:15:02,42.805,6.029,CST-1368DR,4408,4928,11881,01.093,551
2023-01-22T06:18:04,42.805,6.029,CST-1368DR,4408,4930,11886,01.092,551
2023-01-22T06:21:06,42.805,6.029,CST-1368DR,4408,4930,11886,01.092,551
2023-01-22T06:24:07,42.805,6.029,CST-1368DR,4408,4929,11884,01.092,551
2023-01-22T06:27:09,42.805,6.029,CST-1368DR,4408,4930,11886,01.092,551
2023-01-22T06:30:10,42.805,6.029,CST-1368DR,4408,4929,11884,01.092,551
2023-01-22T06:33:12,42.805,6.029,CST-1368DR,4408,4929,11884,01.092,551
2023-01-22T06:36:14,42.805,6.029,CST-1368DR,4408,4929,11884,01.092,551
2023-01-22T06:39:15,42.805,6.029,CST-1368DR,4408,4929,11883,01.093,551
2023-01-22T06:42:17,42.805,6.029,CST-1368DR,4408,4931,11889,01.091,551
2023-01-22T06:45:18,42.805,6.029,CST-1368DR,4408,4929,11883,01.093,551
2023-01-22T06:48:20,42.805,6.029,CST-1368DR,4408,4929,11883,01.093,551
2023-01-22T06:51:21,42.805,6.029,CST-1368DR,4408,4929,11883,01.093,551
2023-01-22T06:54:23,42.805,6.029,CST-1368DR,4408,4929,11884,01.092,551
2023-01-22T06:57:25,42.805,6.029,CST-1368DR,4408,4927,11878,01.094,551
2023-01-22T07:00:26,42.805,6.029,CST-1368DR,4408,4931,11889,01.091,551
2023-01-22T07:03:28,42.805,6.029,CST-1368DR,4408,4930,11886,01.092,551
2023-01-22T07:06:29,42.805,6.029,CST-1368DR,4408,4931,11887,01.091,551
2023-01-22T07:09:31,42.805,6.029,CST-1368DR,4408,4931,11888,01.091,551
2023-01-22T07:12:33,42.805,6.029,CST-1368DR,4408,4932,11890,01.090,551
2023-01-22T07:15:34,42.805,6.029,CST-1368DR,4408,4930,11885,01.092,551
2023-01-22T07:18:36,42.805,6.029,CST-1368DR,4408,4931,11889,01.091,551
2023-01-22T07:21:37,42.805,6.029,CST-1368DR,4408,4931,11887,01.091,551
2023-01-22T07:24:39,42.805,6.029,CST-1368DR,4408,4931,11888,01.091,551
2023-01-22T07:27:40,42.805,6.029,CST-1368DR,4408,4931,11888,01.091,551
2023-01-22T07:30:42,42.805,6.029,CST-1368DR,4408,4931,11887,01.091,551
2023-01-22T07:33:44,42.805,6.029,CST-1368DR,4408,4931,11887,01.091,551
2023-01-22T07:36:45,42.805,6.029,CST-1368DR,4408,4931,11889,01.091,551
2023-01-22T07:39:47,42.805,6.029,CST-1368DR,4408,4931,11887,01.091,551
2023-01-22T07:42:48,42.805,6.029,CST-1368DR,4408,4932,11890,01.090,551
2023-01-22T07:45:50,42.805,6.029,CST-1368DR,4408,4931,11888,01.091,551
2023-01-22T07:48:52,42.805,6.029,CST-1368DR,4408,4930,11886,01.092,551
2023-01-22T07:51:53,42.805,6.029,CST-1368DR,4408,4931,11888,01.091,551
2023-01-22T07:54:55,42.805,6.029,CST-1368DR,4408,4929,11884,01.092,551
2023-01-22T07:57:56,42.805,6.029,CST-1368DR,4408,4928,11880,01.094,551
2023-01-22T08:00:58,42.805,6.029,CST-1368DR,4408,4931,11889,01.091,551
2023-01-22T08:03:59,42.805,6.029,CST-1368DR,4408,4931,11889,01.091,551
2023-01-22T08:07:01,42.805,6.029,CST-1368DR,4408,4931,11887,01.091,551
2023-01-22T08:10:03,42.805,6.029,CST-1368DR,4408,4928,11881,01.093,551
2023-01-22T08:13:04,42.805,6.029,CST-1368DR,4408,4929,11883,01.093,551
2023-01-22T08:16:06,42.805,6.029,CST-1368DR,4408,4930,11886,01.092,551
2023-01-22T08:19:07,42.805,6.029,CST-1368DR,4408,4928,11880,01.094,551
2023-01-22T08:22:09,42.805,6.029,CST-1368DR,4408,4930,11885,01.092,551
2023-01-22T08:25:11,42.805,6.029,CST-1368DR,4408,4930,11885,01.092,551
2023-01-22T08:28:12,42.805,6.029,CST-1368DR,4408,4930,11886,01.092,551
2023-01-22T08:31:14,42.805,6.029,CST-1368DR,4408,4930,11886,01.092,551
2023-01-22T08:34:15,42.805,6.029,CST-1368DR,4408,4931,11887,01.091,551
2023-01-22T08:37:17,42.805,6.029,CST-1368DR,4408,4929,11884,01.092,551
2023-01-22T08:40:18,42.805,6.029,CST-1368DR,4408,4930,11886,01.092,551
2023-01-22T08:43:20,42.805,6.029,CST-1368DR,4408,4929,11883,01.093,551
2023-01-22T08:46:22,42.805,6.029,CST-1368DR,4408,4929,11884,01.092,551
2023-01-22T08:49:23,42.805,6.029,CST-1368DR,4408,4930,11886,01.092,551
2023-01-22T08:52:25,42.805,6.029,CST-1368DR,4408,4930,11886,01.092,551
2023-01-22T08:55:26,42.805,6.029,CST-1368DR,4408,4930,11885,01.092,551
2023-01-22T08:58:28,42.805,6.029,CST-1368DR,4408,4930,11886,01.092,551
2023-01-22T09:01:30,42.805,6.029,CST-1368DR,4408,4929,11884,01.092,551
2023-01-22T09:04:31,42.805,6.029,CST-1368DR,4408,4930,11886,01.092,551
2023-01-22T09:07:33,42.805,6.029,CST-1368DR,4408,4930,11886,01.092,551
2023-01-22T09:10:34,42.805,6.029,CST-1368DR,4408,4929,11883,01.093,551
2023-01-22T09:13:36,42.805,6.029,CST-1368DR,4408,4926,11877,01.095,551
2023-01-22T09:16:37,42.805,6.029,CST-1368DR,4408,4929,11883,01.093,551
2023-01-22T09:19:39,42.805,6.029,CST-1368DR,4408,4927,11879,01.094,551
2023-01-22T09:22:41,42.805,6.029,CST-1368DR,4408,4929,11883,01.093,551
2023-01-22T09:25:42,42.805,6.029,CST-1368DR,4408,4928,11881,01.093,551
2023-01-22T09:28:44,42.805,6.029,CST-1368DR,4408,4925,11874,01.096,551
2023-01-22T09:31:45,42.805,6.029,CST-1368DR,4408,4924,11872,01.096,551
2023-01-22T09:34:47,42.805,6.029,CST-1368DR,4408,4926,11877,01.095,551
2023-01-22T09:37:49,42.805,6.029,CST-1368DR,4408,4925,11873,01.096,551
2023-01-22T09:40:50,42.805,6.029,CST-1368DR,4408,4926,11875,01.095,551
2023-01-22T09:43:52,42.805,6.029,CST-1368DR,4408,4923,11870,01.097,551
2023-01-22T09:46:53,42.805,6.029,CST-1368DR,4408,4923,11869,01.097,551
2023-01-22T09:49:55,42.805,6.029,CST-1368DR,4408,4927,11879,01.094,551
2023-01-22T09:52:56,42.805,6.029,CST-1368DR,4408,4927,11878,01.094,551
2023-01-22T09:55:58,42.805,6.029,CST-1368DR,4408,4926,11877,01.095,551
2023-01-22T09:59:00,42.805,6.029,CST-1368DR,4408,4925,11874,01.096,551
2023-01-22T10:02:01,42.805,6.029,CST-1368DR,4408,4924,11871,01.097,551
2023-01-22T10:05:03,42.805,6.029,CST-1368DR,4408,4925,11875,01.095,551
2023-01-22T10:08:04,42.805,6.029,CST-1368DR,4408,4925,11873,01.096,551
2023-01-22T10:11:06,42.805,6.029,CST-1368DR,4408,4925,11874,01.096,551
2023-01-22T10:14:08,42.805,6.029,CST-1368DR,4408,4925,11873,01.096,551
2023-01-22T10:17:09,42.805,6.029,CST-1368DR,4408,4925,11874,01.096,551
2023-01-22T10:20:11,42.805,6.029,CST-1368DR,4408,4925,11875,01.095,551
2023-01-22T10:23:12,42.805,6.029,CST-1368DR,4408,4925,11874,01.096,551
2023-01-22T10:26:14,42.805,6.029,CST-1368DR,4408,4924,11872,01.096,551
2023-01-22T10:29:15,42.805,6.029,CST-1368DR,4408,4925,11875,01.095,551
2023-01-22T10:32:17,42.805,6.029,CST-1368DR,4408,4925,11874,01.096,551
2023-01-22T10:35:19,42.805,6.029,CST-1368DR,4408,4924,11871,01.097,551
2023-01-22T10:38:20,42.805,6.029,CST-1368DR,4408,4925,11875,01.095,551
2023-01-22T10:41:22,42.805,6.029,CST-1368DR,4408,4925,11874,01.096,551
2023-01-22T10:44:23,42.805,6.029,CST-1368DR,4408,4923,11869,01.097,551
2023-01-22T10:47:25,42.805,6.029,CST-1368DR,4408,4925,11874,01.096,551
2023-01-22T10:50:27,42.805,6.029,CST-1368DR,4408,4923,11869,01.097,551
2023-01-22T10:53:28,42.805,6.029,CST-1368DR,4408,4925,11874,01.096,551
2023-01-22T10:56:30,42.805,6.029,CST-1368DR,4408,4924,11871,01.097,551
2023-01-22T10:59:31,42.805,6.029,CST-1368DR,4408,4921,11865,01.099,551
2023-01-22T11:02:33,42.805,6.029,CST-1368DR,4408,4923,11870,01.097,551
2023-01-22T11:05:34,42.805,6.029,CST-1368DR,4408,4922,11866,01.098,551
2023-01-22T11:08:36,42.805,6.029,CST-1368DR,4408,4922,11866,01.098,551
2023-01-22T11:11:38,42.805,6.029,CST-1368DR,4408,4922,11868,01.098,551
2023-01-22T11:14:39,42.805,6.029,CST-1368DR,4408,4921,11865,01.099,551
2023-01-22T11:17:41,42.805,6.029,CST-1368DR,4408,4921,11865,01.099,551
2023-01-22T11:20:42,42.805,6.029,CST-1368DR,4408,4922,11866,01.098,551
2023-01-22T11:23:44,42.805,6.029,CST-1368DR,4408,4923,11868,01.098,551
2023-01-22T11:26:46,42.805,6.029,CST-1368DR,4408,4923,11870,01.097,551
2023-01-22T11:29:47,42.805,6.029,CST-1368DR,4408,4922,11867,01.098,551
2023-01-22T11:32:49,42.805,6.029,CST-1368DR,4408,4922,11867,01.098,551
2023-01-22T11:35:50,42.805,6.029,CST-1368DR,4408,4921,11865,01.099,551
2023-01-22T11:38:52,42.805,6.029,CST-1368DR,4408,4922,11867,01.098,551
2023-01-22T11:41:53,42.805,6.029,CST-1368DR,4408,4922,11866,01.098,551
2023-01-22T11:44:55,42.805,6.029,CST-1368DR,4408,4921,11863,01.099,551
2023-01-22T11:47:57,42.805,6.029,CST-1368DR,4408,4921,11864,01.099,551
2023-01-22T11:50:58,42.805,6.029,CST-1368DR,4408,4922,11866,01.098,551
2023-01-22T11:54:00,42.805,6.029,CST-1368DR,4408,4923,11868,01.098,551
2023-01-22T11:57:01,42.805,6.029,CST-1368DR,4408,4922,11866,01.098,551
2023-01-22T12:00:03,42.805,6.029,CST-1368DR,4408,4922,11868,01.098,551
2023-01-22T12:03:05,42.805,6.029,CST-1368DR,4408,4922,11868,01.098,551
2023-01-22T12:06:06,42.805,6.029,CST-1368DR,4408,4918,11857,01.102,551
2023-01-22T12:09:08,42.805,6.029,CST-1368DR,4408,4922,11867,01.098,551
2023-01-22T12:12:09,42.805,6.029,CST-1368DR,4408,4922,11866,01.098,551
2023-01-22T12:15:11,42.805,6.029,CST-1368DR,4408,4921,11864,01.099,551
2023-01-22T12:18:13,42.805,6.029,CST-1368DR,4408,4922,11868,01.098,551
2023-01-22T12:21:14,42.805,6.029,CST-1368DR,4408,4922,11867,01.098,551
2023-01-22T12:24:16,42.805,6.029,CST-1368DR,4408,4921,11865,01.099,551
2023-01-22T12:27:17,42.805,6.029,CST-1368DR,4408,4921,11863,01.099,551
2023-01-22T12:30:19,42.805,6.029,CST-1368DR,4408,4921,11864,01.099,551
2023-01-22T12:33:20,42.805,6.029,CST-1368DR,4408,4921,11865,01.099,551
2023-01-22T12:36:22,42.805,6.029,CST-1368DR,4408,4921,11865,01.099,551
2023-01-22T12:39:24,42.805,6.029,CST-1368DR,4408,4912,11842,01.107,551
2023-01-22T12:42:25,42.805,6.029,CST-1368DR,4408,4912,11843,01.106,551
2023-01-22T12:45:27,42.805,6.029,CST-1368DR,4408,4912,11842,01.107,551
2023-01-22T12:48:28,42.805,6.029,CST-1368DR,4408,4912,11842,01.107,551
2023-01-22T12:51:30,42.805,6.029,CST-1368DR,4408,4910,11839,01.108,551
2023-01-22T12:54:32,42.805,6.029,CST-1368DR,4408,4912,11842,01.107,551
2023-01-22T12:57:33,42.805,6.029,CST-1368DR,4408,4912,11842,01.107,551
2023-01-22T13:00:35,42.805,6.029,CST-1368DR,4408,4911,11840,01.107,551
2023-01-22T13:03:36,42.805,6.029,CST-1368DR,4408,4913,11844,01.106,551
2023-01-22T13:06:38,42.805,6.029,CST-1368DR,4408,4912,11843,01.106,551
2023-01-22T13:09:39,42.805,6.029,CST-1368DR,4408,4911,11839,01.108,551
2023-01-22T13:12:41,42.805,6.029,CST-1368DR,4408,4914,11847,01.105,551
2023-01-22T13:15:43,42.805,6.029,CST-1368DR,4408,4910,11837,01.108,551
2023-01-22T13:18:44,42.805,6.029,CST-1368DR,4408,4911,11840,01.107,551
2023-01-22T13:21:46,42.805,6.029,CST-1368DR,4408,4910,11837,01.108,551
2023-01-22T13:24:47,42.805,6.029,CST-1368DR,4408,4910,11839,01.108,551
2023-01-22T13:27:49,42.805,6.029,CST-1368DR,4408,4911,11840,01.107,551
2023-01-22T13:30:51,42.805,6.029,CST-1368DR,4408,4910,11837,01.108,551
2023-01-22T13:33:52,42.805,6.029,CST-1368DR,4408,4911,11840,01.107,551
2023-01-22T13:36:54,42.805,6.029,CST-1368DR,4408,4911,11840,01.107,551
2023-01-22T13:39:55,42.805,6.029,CST-1368DR,4408,4909,11835,01.109,551
2023-01-22T13:42:57,42.805,6.029,CST-1368DR,4408,4911,11841,01.107,551
2023-01-22T13:45:59,42.805,6.029,CST-1368DR,4408,4911,11839,01.108,551
2023-01-22T13:49:00,42.805,6.029,CST-1368DR,4408,4910,11839,01.108,551
2023-01-22T13:52:02,42.805,6.029,CST-1368DR,4408,4910,11839,01.108,551
2023-01-22T13:55:03,42.805,6.029,CST-1368DR,4408,4908,11834,01.109,551
2023-01-22T13:58:05,42.805,6.029,CST-1368DR,4408,4908,11834,01.109,551
2023-01-22T14:01:06,42.805,6.029,CST-1368DR,4408,4909,11836,01.109,551
2023-01-22T14:04:08,42.805,6.029,CST-1368DR,4408,4910,11837,01.108,551
2023-01-22T14:07:10,42.805,6.029,CST-1368DR,4408,4908,11833,01.110,551
2023-01-22T14:10:11,42.805,6.029,CST-1368DR,4408,4908,11834,01.109,551
2023-01-22T14:13:13,42.805,6.029,CST-1368DR,4408,4909,11836,01.109,551
2023-01-22T14:16:14,42.805,6.029,CST-1368DR,4408,4909,11836,01.109,551
2023-01-22T14:19:16,42.805,6.029,CST-1368DR,4408,4910,11837,01.108,551
2023-01-22T14:22:18,42.805,6.029,CST-1368DR,4408,4910,11839,01.108,551
2023-01-22T14:25:19,42.805,6.029,CST-1368DR,4408,4910,11837,01.108,551
2023-01-22T14:28:21,42.805,6.029,CST-1368DR,4408,4909,11836,01.109,551
2023-01-22T14:31:22,42.805,6.029,CST-1368DR,4408,4909,11836,01.109,551
2023-01-22T14:34:24,42.805,6.029,CST-1368DR,4408,4910,11839,01.108,551
2023-01-22T14:37:25,42.805,6.029,CST-1368DR,4408,4911,11840,01.107,551
2023-01-22T14:40:27,42.805,6.029,CST-1368DR,4408,4913,11845,01.106,551
2023-01-22T14:43:29,42.805,6.029,CST-1368DR,4408,4913,11845,01.106,551
2023-01-22T14:46:30,42.805,6.029,CST-1368DR,4408,4913,11845,01.106,551
2023-01-22T14:49:32,42.805,6.029,CST-1368DR,4408,4913,11845,01.106,551
2023-01-22T14:52:33,42.805,6.029,CST-1368DR,4408,4914,11846,01.105,551
2023-01-22T14:55:35,42.805,6.029,CST-1368DR,4408,4914,11848,01.105,551
2023-01-22T14:58:37,42.805,6.029,CST-1368DR,4408,4919,11860,01.100,551
2023-01-22T15:01:38,42.805,6.029,CST-1368DR,4408,4920,11861,01.100,551
2023-01-22T15:04:40,42.805,6.029,CST-1368DR,4408,4923,11868,01.098,551
2023-01-22T15:07:41,42.805,6.029,CST-1368DR,4408,4923,11869,01.097,551
2023-01-22T15:10:43,42.805,6.029,CST-1368DR,4408,4922,11868,01.098,551
2023-01-22T15:13:45,42.805,6.029,CST-1368DR,4408,4922,11868,01.098,551
2023-01-22T15:16:46,42.805,6.029,CST-1368DR,4408,4923,11868,01.098,551
2023-01-22T15:19:48,42.805,6.029,CST-1368DR,4408,4923,11870,01.097,551
2023-01-22T15:22:49,42.805,6.029,CST-1368DR,4408,4922,11868,01.098,551
2023-01-22T15:25:51,42.805,6.029,CST-1368DR,4408,4923,11869,01.097,551
2023-01-22T15:28:52,42.805,6.029,CST-1368DR,4408,4922,11868,01.098,551
2023-01-22T15:31:54,42.805,6.029,CST-1368DR,4408,4922,11866,01.098,551
2023-01-22T15:34:56,42.805,6.029,CST-1368DR,4408,4922,11868,01.098,551
2023-01-22T15:37:57,42.805,6.029,CST-1368DR,4408,4922,11867,01.098,551
2023-01-22T15:40:59,42.805,6.029,CST-1368DR,4408,4922,11867,01.098,551
2023-01-22T15:44:00,42.805,6.029,CST-1368DR,4408,4922,11866,01.098,551
2023-01-22T15:47:02,42.805,6.029,CST-1368DR,4408,4923,11869,01.097,551
2023-01-22T15:50:04,42.805,6.029,CST-1368DR,4408,4922,11867,01.098,551
2023-01-22T15:53:05,42.805,6.029,CST-1368DR,4408,4922,11866,01.098,551
2023-01-22T15:56:07,42.805,6.029,CST-1368DR,4408,4924,11872,01.096,551
2023-01-22T15:59:08,42.805,6.029,CST-1368DR,4408,4924,11872,01.096,551
2023-01-22T16:02:10,42.805,6.029,CST-1368DR,4408,4923,11869,01.097,551
2023-01-22T16:05:12,42.805,6.029,CST-1368DR,4408,4923,11869,01.097,551
2023-01-22T16:08:13,42.805,6.029,CST-1368DR,4408,4924,11871,01.097,551
2023-01-22T16:11:15,42.805,6.029,CST-1368DR,4408,4924,11872,01.096,551
2023-01-22T16:14:16,42.805,6.029,CST-1368DR,4408,4924,11872,01.096,551
2023-01-22T16:17:18,42.805,6.029,CST-1368DR,4408,4923,11870,01.097,551
2023-01-22T16:20:19,42.805,6.029,CST-1368DR,4408,4924,11872,01.096,551
2023-01-22T16:23:21,42.805,6.029,CST-1368DR,4408,4925,11873,01.096,551
2023-01-22T16:26:23,42.805,6.029,CST-1368DR,4408,4924,11872,01.096,551
2023-01-22T16:29:24,42.805,6.029,CST-1368DR,4408,4925,11874,01.096,551
2023-01-22T16:32:26,42.805,6.029,CST-1368DR,4408,4924,11871,01.097,551
2023-01-22T16:35:27,42.805,6.029,CST-1368DR,4408,4925,11874,01.096,551
2023-01-22T16:38:29,42.805,6.029,CST-1368DR,4408,4923,11869,01.097,551